Simultaneous Nadir Overpasses (SNOs) Predictions

Prediction of SNOs between NPP and GCOM-C Satellite Orbit:

Table of predicted SNOs for the next 14.0 days since TLE Epoch: 5/27/2023
Index Date (NPP) Time (NPP) Lat,Lon (NPP) SZA (NPP ) Date (GCOM-C) Time (GCOM-C) Lat,Lon (GCOM-C) SZA (GCOM-C ) Distance(km) Time Diff (sec)
1 06/05/2023 03:42:29 -69.34, -57.69 133.27 06/05/2023 03:43:38 -69.25, -56.03 133.38 65.94 69
2 06/05/2023 04:33:03 68.70, 110.50 46.07 06/05/2023 04:34:15 68.70, 110.62 46.07 4.76 72
3 06/05/2023 05:23:46 -68.66, -82.13 133.98 06/05/2023 05:24:46 -68.65, -82.07 133.98 2.32 60
4 06/05/2023 06:14:31 68.60, 85.26 45.97 06/05/2023 06:15:14 68.59, 85.24 45.96 1.46 43
5 06/05/2023 07:05:15 -68.61,-107.44 134.03 06/05/2023 07:05:44 -68.60,-107.38 134.05 3.10 29
6 06/05/2023 07:56:00 68.56, 59.94 45.91 06/05/2023 07:56:12 68.53, 59.92 45.89 2.70 12
7 06/05/2023 08:46:43 -68.52,-132.69 134.13 06/05/2023 08:46:42 -68.54,-132.69 134.11 2.62 1
8 06/05/2023 09:37:29 68.51, 34.63 45.86 06/05/2023 09:37:09 68.53, 34.68 45.88 3.04 20
9 06/05/2023 10:28:12 -68.47,-158.00 134.19 06/05/2023 10:27:40 -68.48,-158.01 134.18 1.20 32
10 06/05/2023 11:18:58 68.47, 9.31 45.81 06/05/2023 11:18:07 68.47, 9.37 45.81 2.55 51
11 06/05/2023 12:09:41 -68.43, 176.68 134.24 06/05/2023 12:08:38 -68.42, 176.68 134.24 0.26 63
12 06/05/2023 13:00:22 68.15, -15.66 45.48 06/05/2023 12:59:09 68.20, -16.22 45.53 23.45 73
13 06/05/2023 13:50:58 -67.74, 152.17 134.94 06/05/2023 13:49:48 -67.72, 150.57 134.95 67.69 70



Historial Predications of SNOs between NPP and GCOM-C
